Time,TemperatureF,DewpointF,PressureIn,WindDirection,WindDirectionDegrees,WindSpeedMPH,WindSpeedGustMPH,Humidity,HourlyPrecipIn,Conditions,Clouds,dailyrainin,SolarRadiationWatts/m^2,SoftwareType,DateUTC
2013-02-21 01:22:00,45.0,26.0,29.98,North,6,9.0,16.0,47,0.00,,,0.00,0.000000,,2013-02-21 09:22:00,
2013-02-21 01:31:00,45.0,26.0,29.98,North,6,9.0,16.0,47,0.00,,,0.00,0.000000,,2013-02-21 09:31:00,
2013-02-21 01:41:00,45.0,26.0,29.98,North,6,9.0,16.0,47,0.00,,,0.00,0.000000,,2013-02-21 09:41:00,
2013-02-21 01:51:00,45.0,26.0,29.98,North,6,9.0,16.0,47,0.00,,,0.00,0.000000,,2013-02-21 09:51:00,
2013-02-21 02:21:00,44.0,28.0,29.97,North,9,9.0,15.0,54,0.00,,,0.00,0.000000,,2013-02-21 10:21:00,
2013-02-21 02:31:00,44.0,28.0,29.97,North,9,9.0,15.0,54,0.00,,,0.00,0.000000,,2013-02-21 10:31:00,
2013-02-21 02:41:00,44.0,28.0,29.97,North,9,9.0,15.0,54,0.00,,,0.00,0.000000,,2013-02-21 10:41:00,
2013-02-21 02:51:00,44.0,28.0,29.97,North,9,9.0,15.0,54,0.00,,,0.00,0.000000,,2013-02-21 10:51:00,
2013-02-21 03:21:00,44.0,27.0,29.97,North,0,9.0,18.0,51,0.00,,,0.00,0.000000,,2013-02-21 11:21:00,
2013-02-21 03:31:00,44.0,27.0,29.97,North,0,9.0,18.0,51,0.00,,,0.00,0.000000,,2013-02-21 11:31:00,
2013-02-21 03:41:00,44.0,27.0,29.97,North,0,9.0,18.0,51,0.00,,,0.00,0.000000,,2013-02-21 11:41:00,
2013-02-21 03:51:00,44.0,27.0,29.97,North,0,9.0,18.0,51,0.00,,,0.00,0.000000,,2013-02-21 11:51:00,
2013-02-21 04:21:00,42.0,29.0,29.98,NNE,15,7.0,15.0,60,0.00,,,0.00,0.000000,,2013-02-21 12:21:00,
2013-02-21 04:32:00,42.0,29.0,29.98,NNE,15,7.0,15.0,60,0.00,,,0.00,0.000000,,2013-02-21 12:32:00,
2013-02-21 04:42:00,42.0,29.0,29.98,NNE,15,7.0,15.0,60,0.00,,,0.00,0.000000,,2013-02-21 12:42:00,
2013-02-21 04:52:00,42.0,29.0,29.98,NNE,15,7.0,15.0,60,0.00,,,0.00,0.000000,,2013-02-21 12:52:00,
2013-02-21 05:22:00,43.0,32.0,29.98,North,8,8.0,14.0,66,0.00,,,0.00,0.000000,,2013-02-21 13:22:00,
2013-02-21 05:32:00,43.0,32.0,29.98,North,8,8.0,14.0,66,0.00,,,0.00,0.000000,,2013-02-21 13:32:00,
2013-02-21 05:41:00,43.0,32.0,29.98,North,8,8.0,14.0,66,0.00,,,0.00,0.000000,,2013-02-21 13:41:00,
2013-02-21 05:51:00,43.0,32.0,29.98,North,8,8.0,14.0,66,0.00,,,0.00,0.000000,,2013-02-21 13:51:00,
2013-02-21 06:21:00,41.0,31.0,29.98,NNE,13,8.0,15.0,66,0.00,,,0.00,0.000000,,2013-02-21 14:21:00,
2013-02-21 06:32:00,41.0,31.0,29.98,NNE,13,8.0,15.0,66,0.00,,,0.00,0.000000,,2013-02-21 14:32:00,
2013-02-21 06:41:00,41.0,31.0,29.98,NNE,13,8.0,15.0,66,0.00,,,0.00,0.000000,,2013-02-21 14:41:00,
2013-02-21 06:52:00,41.0,31.0,29.98,NNE,13,8.0,15.0,66,0.00,,,0.00,0.000000,,2013-02-21 14:52:00,
2013-02-21 07:21:00,43.0,33.0,30.00,North,2,9.0,13.0,67,0.00,,,0.00,4.000000,,2013-02-21 15:21:00,
2013-02-21 07:31:00,43.0,33.0,30.00,North,2,9.0,13.0,67,0.00,,,0.00,4.000000,,2013-02-21 15:31:00,
2013-02-21 07:42:00,43.0,33.0,30.00,North,2,9.0,13.0,67,0.00,,,0.00,4.000000,,2013-02-21 15:42:00,
2013-02-21 07:51:00,43.0,33.0,30.00,North,2,9.0,13.0,67,0.00,,,0.00,4.000000,,2013-02-21 15:51:00,
2013-02-21 08:21:00,49.0,34.0,30.02,North,1,7.0,16.0,57,0.00,,,0.00,48.000000,,2013-02-21 16:21:00,
2013-02-21 08:31:00,49.0,34.0,30.02,North,1,7.0,16.0,57,0.00,,,0.00,48.000000,,2013-02-21 16:31:00,
2013-02-21 08:42:00,49.0,34.0,30.02,North,1,7.0,16.0,57,0.00,,,0.00,48.000000,,2013-02-21 16:42:00,
2013-02-21 08:51:00,49.0,34.0,30.02,North,1,7.0,16.0,57,0.00,,,0.00,48.000000,,2013-02-21 16:51:00,
2013-02-21 09:42:00,56.0,43.0,30.01,East,99,9.0,14.0,61,0.00,,,0.00,195.000000,,2013-02-21 17:42:00,
2013-02-21 09:52:00,56.0,43.0,30.01,East,99,9.0,14.0,61,0.00,,,0.00,195.000000,,2013-02-21 17:52:00,
2013-02-21 10:22:00,55.0,43.0,30.03,East,97,10.0,15.0,64,0.00,,,0.00,110.000000,,2013-02-21 18:22:00,
2013-02-21 10:31:00,55.0,43.0,30.03,East,97,10.0,15.0,64,0.00,,,0.00,110.000000,,2013-02-21 18:31:00,
2013-02-21 10:42:00,55.0,43.0,30.03,East,97,10.0,15.0,64,0.00,,,0.00,110.000000,,2013-02-21 18:42:00,
2013-02-21 10:51:00,55.0,43.0,30.03,East,97,10.0,15.0,64,0.00,,,0.00,110.000000,,2013-02-21 18:51:00,
2013-02-21 11:21:00,59.0,46.0,30.01,ESE,109,10.0,19.0,62,0.00,,,0.00,371.000000,,2013-02-21 19:21:00,
2013-02-21 11:31:00,59.0,46.0,30.01,ESE,109,10.0,19.0,62,0.00,,,0.00,371.000000,,2013-02-21 19:31:00,
2013-02-21 11:41:00,59.0,46.0,30.01,ESE,109,10.0,19.0,62,0.00,,,0.00,371.000000,,2013-02-21 19:41:00,
2013-02-21 11:51:00,59.0,46.0,30.01,ESE,109,10.0,19.0,62,0.00,,,0.00,371.000000,,2013-02-21 19:51:00,
2013-02-21 12:21:00,60.0,45.0,29.99,SE,133,6.0,15.0,58,0.00,,,0.00,729.000000,,2013-02-21 20:21:00,
2013-02-21 12:31:00,60.0,45.0,29.99,SE,133,6.0,15.0,58,0.00,,,0.00,729.000000,,2013-02-21 20:31:00,
2013-02-21 12:41:00,60.0,45.0,29.99,SE,133,6.0,15.0,58,0.00,,,0.00,729.000000,,2013-02-21 20:41:00,
2013-02-21 12:52:00,60.0,45.0,29.99,SE,133,6.0,15.0,58,0.00,,,0.00,729.000000,,2013-02-21 20:52:00,
2013-02-21 13:21:00,63.0,46.0,29.99,SSW,196,6.0,10.0,53,0.00,,,0.00,848.000000,,2013-02-21 21:21:00,
2013-02-21 13:31:00,63.0,46.0,29.99,SSW,196,6.0,10.0,53,0.00,,,0.00,848.000000,,2013-02-21 21:31:00,
2013-02-21 13:41:00,63.0,46.0,29.99,SSW,196,6.0,10.0,53,0.00,,,0.00,848.000000,,2013-02-21 21:41:00,
2013-02-21 13:51:00,63.0,46.0,29.99,SSW,196,6.0,10.0,53,0.00,,,0.00,848.000000,,2013-02-21 21:51:00,
2013-02-21 14:21:00,61.0,44.0,29.98,SW,227,7.0,11.0,54,0.00,,,0.00,788.000000,,2013-02-21 22:21:00,
2013-02-21 14:31:00,61.0,44.0,29.98,SW,227,7.0,11.0,54,0.00,,,0.00,788.000000,,2013-02-21 22:31:00,
2013-02-21 14:41:00,61.0,44.0,29.98,SW,227,7.0,11.0,54,0.00,,,0.00,788.000000,,2013-02-21 22:41:00,
2013-02-21 14:52:00,61.0,44.0,29.98,SW,227,7.0,11.0,54,0.00,,,0.00,788.000000,,2013-02-21 22:52:00,
2013-02-21 15:21:00,61.0,45.0,29.98,WSW,244,8.0,13.0,55,0.00,,,0.00,648.000000,,2013-02-21 23:21:00,
2013-02-21 15:31:00,61.0,45.0,29.98,WSW,244,8.0,13.0,55,0.00,,,0.00,648.000000,,2013-02-21 23:31:00,
2013-02-21 15:41:00,61.0,45.0,29.98,WSW,244,8.0,13.0,55,0.00,,,0.00,648.000000,,2013-02-21 23:41:00,
2013-02-21 15:52:00,61.0,45.0,29.98,WSW,244,8.0,13.0,55,0.00,,,0.00,648.000000,,2013-02-21 23:52:00,
2013-02-21 16:21:00,58.0,42.0,29.99,WSW,246,10.0,17.0,55,0.00,,,0.00,457.000000,,2013-02-22 00:21:00,
2013-02-21 16:31:00,58.0,42.0,29.99,WSW,246,10.0,17.0,55,0.00,,,0.00,457.000000,,2013-02-22 00:31:00,
2013-02-21 16:41:00,58.0,42.0,29.99,WSW,246,10.0,17.0,55,0.00,,,0.00,457.000000,,2013-02-22 00:41:00,
2013-02-21 16:51:00,58.0,42.0,29.99,WSW,246,10.0,17.0,55,0.00,,,0.00,457.000000,,2013-02-22 00:51:00,
2013-02-21 17:21:00,56.0,44.0,29.98,WSW,256,11.0,19.0,64,0.00,,,0.00,254.000000,,2013-02-22 01:21:00,
2013-02-21 17:32:00,56.0,44.0,29.98,WSW,256,11.0,19.0,64,0.00,,,0.00,254.000000,,2013-02-22 01:32:00,
2013-02-21 17:42:00,56.0,44.0,29.98,WSW,256,11.0,19.0,64,0.00,,,0.00,254.000000,,2013-02-22 01:42:00,
2013-02-21 17:51:00,56.0,44.0,29.98,WSW,256,11.0,19.0,64,0.00,,,0.00,254.000000,,2013-02-22 01:51:00,
2013-02-21 18:21:00,54.0,38.0,30.01,NW,318,4.0,19.0,55,0.00,,,0.00,53.000000,,2013-02-22 02:21:00,
2013-02-21 18:31:00,54.0,38.0,30.01,NW,318,4.0,19.0,55,0.00,,,0.00,53.000000,,2013-02-22 02:31:00,
2013-02-21 18:42:00,54.0,38.0,30.01,NW,318,4.0,19.0,55,0.00,,,0.00,53.000000,,2013-02-22 02:42:00,
2013-02-21 18:52:00,54.0,38.0,30.01,NW,318,4.0,19.0,55,0.00,,,0.00,53.000000,,2013-02-22 02:52:00,
2013-02-21 19:21:00,54.0,36.0,30.02,NNW,346,7.0,12.0,50,0.00,,,0.00,0.000000,,2013-02-22 03:21:00,
2013-02-21 19:31:00,54.0,36.0,30.02,NNW,346,7.0,12.0,50,0.00,,,0.00,0.000000,,2013-02-22 03:31:00,
2013-02-21 19:41:00,54.0,36.0,30.02,NNW,346,7.0,12.0,50,0.00,,,0.00,0.000000,,2013-02-22 03:41:00,
2013-02-21 19:51:00,54.0,36.0,30.02,NNW,346,7.0,12.0,50,0.00,,,0.00,0.000000,,2013-02-22 03:51:00,
2013-02-21 20:11:00,51.0,33.0,30.04,North,349,5.0,11.0,49,0.00,,,0.00,0.000000,,2013-02-22 04:11:00,
2013-02-21 20:21:00,51.0,33.0,30.04,North,349,5.0,11.0,49,0.00,,,0.00,0.000000,,2013-02-22 04:21:00,
2013-02-21 20:32:00,51.0,33.0,30.04,North,349,5.0,11.0,49,0.00,,,0.00,0.000000,,2013-02-22 04:32:00,
2013-02-21 21:22:00,50.0,34.0,30.05,North,6,7.0,11.0,53,0.00,,,0.00,0.000000,,2013-02-22 05:22:00,
2013-02-21 21:32:00,50.0,34.0,30.05,North,6,7.0,11.0,53,0.00,,,0.00,0.000000,,2013-02-22 05:32:00,
2013-02-21 21:41:00,50.0,34.0,30.05,North,6,7.0,11.0,53,0.00,,,0.00,0.000000,,2013-02-22 05:41:00,
2013-02-21 21:52:00,50.0,34.0,30.05,North,6,7.0,11.0,53,0.00,,,0.00,0.000000,,2013-02-22 05:52:00,
2013-02-21 22:21:00,51.0,31.0,30.06,NW,324,4.0,9.0,47,0.00,,,0.00,0.000000,,2013-02-22 06:21:00,
2013-02-21 22:31:00,51.0,31.0,30.06,NW,324,4.0,9.0,47,0.00,,,0.00,0.000000,,2013-02-22 06:31:00,
2013-02-21 22:42:00,51.0,31.0,30.06,NW,324,4.0,9.0,47,0.00,,,0.00,0.000000,,2013-02-22 06:42:00,
2013-02-21 22:51:00,51.0,31.0,30.06,NW,324,4.0,9.0,47,0.00,,,0.00,0.000000,,2013-02-22 06:51:00,
2013-02-21 23:42:00,49.0,29.0,30.06,North,358,7.0,12.0,45,0.00,,,0.00,0.000000,,2013-02-22 07:42:00,
2013-02-21 23:51:00,49.0,29.0,30.06,North,358,7.0,12.0,45,0.00,,,0.00,0.000000,,2013-02-22 07:51:00,